Regional Weather Roundup
Issued by NWS

Home | Current Version | Previous Version | Graphics & Text | Print | Product List | Glossary On
Versions: 1 2 3 4 5 6 7 8 9 10 11 12 13 14 15 16 17 18 19 20 21 22 23 24 25 26 27 28 29 30 31 32 33 34 35 36 37 38 39 40 41 42 43 44 45
000
ASUS45 KSLC 262110
RWRUT

UTAH REGIONAL WEATHER ROUNDUP
NATIONAL WEATHER SERVICE SALT LAKE CITY UT
200 PM MST FRI DEC 26 2014

UTZ001>011-023>025-262200-

NORTHERN UTAH

CITY           SKY/WX    TMP DP  RH WIND       PRES   REMARKS
BRIGHAM CITY   SUNNY     27  11  51 CALM      30.05S
HILL AFB       MOSUNNY   25  12  58 NW9       30.01R WCI  15
LOGAN          SUNNY     24  13  62 CALM      30.04S
OGDEN          MOSUNNY   27  14  58 N12       30.02R WCI  17
PROVO AIRPORT  PTSUNNY   27  18  69 NW17      30.01R WCI  14
SALT LAKE CITY PTSUNNY   29  15  56 N16       30.04R WCI  17
VERNAL         CLOUDY    26  16  65 W8        29.90R WCI  18
WENDOVER       CLOUDY    32  16  51 W15G22    30.07S WCI  22
HEBER CITY     LGT SNOW  27  18  69 W5        29.93S WCI  21
WEST JORDAN    MOSUNNY   27  18  69 NW15      30.03R WCI  15

$$

UTZ012>022-026-027-262200-

SOUTHERN/CENTRAL UTAH

CITY           SKY/WX    TMP DP  RH WIND       PRES   REMARKS
BLANDING       CLOUDY    30  19  61 NW13      29.88S WCI  20
BRYCE CANYON   MOSUNNY   19  10  68 NW18G26   29.86R WCI   4
CEDAR CITY     CLOUDY    26  16  65 NE8       29.99S WCI  18
DELTA          CLOUDY    27  17  65 N15       30.03R WCI  16
MILFORD        MIX PCPN  27  18  69 NE10      30.02S WCI  17
MOAB/CYNLANDS  PTSUNNY   28  22  78 N5        29.88R WCI  23
PRICE          CLOUDY    29  10  45 NW15G21   29.85R WCI  18
ST GEORGE      PTCLDY    45  16  31 SE15      30.01S
KANAB            N/A     34  12  40 SE3       29.95F

$$

REGIONAL REPORTS     COLORADO/ARIZONA

CITY           SKY/WX    TMP DP  RH WIND       PRES   REMARKS
CRAIG, CO      LGT SNOW  18  13  80 SW12      29.84R WCI   5
GRAND JUNCTION CLOUDY    27  21  78 W8        29.86R WCI  19
RIFLE          CLOUDY    27  13  55 W14       29.82R WCI  16
MONTROSE       CLOUDY    28  20  71 VRB3      29.81R
CORTEZ         LGT SNOW  28  20  71 W13       29.81R WCI  17
PAGE, AZ       SUNNY     42   5  21 NW10      29.89S
GRAND CANYON   PTSUNNY   28  12  51 NW9       29.89R WCI  19
KINGMAN        SUNNY     44  11  26 N10       30.01F
FLAGSTAFF      CLOUDY    28   8  43 W8        29.88R WCI  20

$$

REGIONAL REPORTS    NEVADA/IDAHO/WYOMING

CITY           SKY/WX    TMP DP  RH WIND       PRES   REMARKS
LAS VEGAS, NV  MOSUNNY   49   8  19 NW12G20   30.02F
ELY            CLOUDY    22  10  60 N9        30.04S WCI  12
ELKO           PTSUNNY   28  16  60 NW8       30.10S WCI  20
POCATELLO, ID  PTSUNNY   23  19  85 SW10      30.09S WCI  12
BURLEY         CLOUDY    24  19  81 NW8       30.11R WCI  15
EVANSTON, WY   CLOUDY    20  11  68 NW8       29.88S WCI  10
ROCK SPRINGS   CLOUDY    16   9  74 NE20      29.89R WCI  -1

$$


USA.gov is the U.S. government's official web portal to all federal, state and local government web resources and services.